Startseite
Über Mich
AHP4
Galerie
Sehschlangen
Tourenbuch
Bookmarks
Elektronik
Bewertung
Geschichten
[Tagesmessung] [Jahreswerte] [Information]

Messwerte vom 30.03.2022

Die letzten Messwerte von 23:58:47 Uhr:
KategorieMesswert
Temperatur [°C]4
Luftdruck [mBar]987
Sonneneinstrahlung0
Wind [km/h]1 aus Ost
Niederschlag [l/m²]0
rel.Luftfeucht.77.7%
CO2 [ppm]492

Diagramme
Messwerte vom 30.03.2022
Tagesaggregation
KategorieMinimumMaximumSchnittSumme
Temperatur [°C]-3113.8750
Luftdruck [mBar]987993989.2104
Sonneneinstrahlung245107.4500
Wind [km/h]17
rF [%]5296.679.01
Niederschlag [l/m²]0
CO2 [ppm]412618536.1
Einordnung alsFrosttag
Vegetationstag

Messungen an benachbarten Tagen: Zur Jahresaggregation 2022
Tabelle aller Messwerte
UhrzeitTemperatur [°C]Luftdruck [mBar]SonneWind [km/h]RichtungRegen [l/m²]rF [%]CO2 [ppm]
00:01:44 2 993 0 0 N 0 87.1 560
00:04:45 2 992 0 0 O 0 87.3 551
00:07:48 1 992 0 0 N 0 87.2 560
00:10:45 1 993 0 0 N 0 87.7 562
00:13:46 1 993 0 1 NW 0 87.6 556
00:16:47 1 992 0 0 W 0 87.8 560
00:19:45 1 993 0 0 W 0 88 559
00:22:47 1 992 0 0 W 0 87.4 560
00:25:47 1 992 0 0 W 0 87.5 553
00:28:46 1 993 0 0 W 0 88 550
00:31:49 1 992 0 0 W 0 88.3 552
00:34:47 1 992 0 0 W 0 88.5 551
00:37:47 1 991 0 0 W 0 89.2 554
00:40:47 1 992 0 0 O 0 89.3 554
00:43:46 1 993 0 0 O 0 89.4 560
00:46:44 1 992 0 0 O 0 89.5 556
00:49:47 0 991 0 0 O 0 89.3 554
00:52:47 0 992 0 0 O 0 89.5 548
00:55:46 0 992 0 0 O 0 89.5 551
00:58:47 0 992 0 0 S 0 89.6 555
01:01:47 0 992 0 0 S 0 89.9 549
01:04:47 0 992 0 0 S 0 90.3 545
01:07:48 0 992 0 0 S 0 90.8 542
01:10:46 0 992 0 0 S 0 91 548
01:13:45 0 991 0 0 S 0 91 539
01:16:46 0 992 0 0 S 0 91 537
01:19:45 0 991 0 0 S 0 91.2 539
01:22:46 0 992 0 0 S 0 91.2 543
01:25:44 0 992 0 0 S 0 91.3 547
01:28:46 0 992 0 0 S 0 91.4 539
01:31:47 0 992 0 0 S 0 91.4 539
01:34:46 -1 992 0 0 NO 0 91.1 533
01:37:46 -1 991 0 0 NO 0 90.9 527
01:40:47 -1 992 0 0 NO 0 91 524
01:43:46 -1 992 0 0 SO 0 91.5 527
01:46:47 -1 991 0 0 SO 0 92.2 526
01:49:48 -1 992 0 0 SO 0 92.5 529
01:52:45 -1 991 0 0 SO 0 92.5 533
01:55:47 -1 992 0 0 SO 0 92.7 527
01:58:47 -1 992 0 0 SO 0 92.9 527
02:01:46 -1 992 0 0 SO 0 93 529
02:04:46 -1 991 0 0 SO 0 93.8 532
02:07:48 -1 992 0 0 SO 0 93.9 533
02:10:49 -1 991 0 0 SO 0 93.8 530
02:13:49 -1 991 0 0 SO 0 93.8 531
02:16:48 -1 991 0 0 SO 0 93.9 524
02:19:48 -1 991 0 0 SO 0 93.8 524
02:22:49 -1 992 0 0 SO 0 93.8 525
02:25:49 -1 991 0 0 W 0 94 522
02:28:45 -1 991 0 0 S 0 94.1 524
02:31:47 -1 991 0 0 S 0 94 522
02:34:46 -1 991 0 0 S 0 94 515
02:37:45 -1 991 0 0 S 0 94.1 518
02:40:46 -1 992 0 0 S 0 94.1 519
02:43:46 -1 992 0 0 S 0 94.2 519
02:46:45 -1 991 0 0 S 0 94.1 515
02:49:45 -1 992 0 0 S 0 94 509
02:52:47 -1 991 0 0 S 0 94.1 503
02:55:44 -1 991 0 0 S 0 94.4 510
02:58:45 -1 991 0 0 S 0 94.4 512
03:01:46 -1 991 0 1 S 0 94.4 518
03:04:46 -1 991 0 0 S 0 94.4 521
03:07:47 -1 991 0 0 SO 0 94.8 512
03:10:47 -1 991 0 0 SO 0 94.6 511
03:13:46 -2 991 0 0 SO 0 94.4 509
03:16:47 -2 991 0 0 S 0 94.4 507
03:19:45 -1 991 0 0 S 0 94.3 501
03:22:45 -2 992 0 0 S 0 94.3 503
03:25:45 -2 991 0 0 S 0 94.4 504
03:28:47 -2 991 0 0 S 0 94.4 515
03:31:46 -2 991 0 0 S 0 94.3 507
03:34:44 -2 992 0 0 S 0 94.4 506
03:37:48 -2 992 0 0 S 0 94.8 498
03:40:44 -2 991 0 0 S 0 94.8 503
03:43:45 -2 991 0 0 S 0 95.2 501
03:46:48 -2 991 0 0 NW 0 95.2 507
03:49:49 -2 991 0 2 SO 0 95.7 506
03:52:47 -2 991 0 0 S 0 95.6 503
03:55:47 -2 991 0 0 S 0 95.3 497
03:58:47 -2 991 0 0 S 0 95.2 498
04:01:47 -2 991 0 0 S 0 95.2 507
04:04:46 -2 991 0 0 S 0 95 512
04:07:45 -3 991 0 0 S 0 95 512
04:10:45 -3 991 0 0 S 0 95.3 506
04:13:47 -2 991 0 0 S 0 95.7 495
04:16:48 -2 991 0 0 S 0 95.5 491
04:19:48 -2 991 0 0 S 0 95.6 498
04:22:48 -2 991 0 0 S 0 95.8 498
04:25:47 -2 991 0 0 NW 0 95.8 501
04:28:45 -2 991 0 0 W 0 96 500
04:31:49 -2 991 0 0 NW 0 96.5 503
04:34:45 -2 991 0 0 N 0 96.6 504
04:37:46 -2 991 0 0 N 0 96.6 504
04:40:45 -2 991 0 0 N 0 96.6 504
04:43:45 -2 991 0 0 N 0 96.5 504
04:46:45 -2 991 0 0 S 0 96.3 510
04:49:48 -3 991 0 0 S 0 96.1 507
04:52:45 -3 991 0 0 S 0 96.1 495
04:55:45 -3 991 0 0 S 0 95.9 493
04:58:46 -3 991 0 0 S 0 96.1 486
05:01:47 -3 991 0 0 S 0 96.5 495
05:04:46 -3 991 0 0 S 0 96.5 498
05:07:45 -3 991 0 0 S 0 96.4 494
05:10:48 -3 991 0 0 S 0 96.2 500
05:13:45 -3 991 0 0 S 0 96.2 497
05:16:46 -3 991 0 0 S 0 96.3 495
05:19:47 -3 991 0 0 S 0 96.3 496
05:22:49 -3 991 0 0 N 0 96.5 501
05:25:47 -3 991 0 0 N 0 96.6 498
05:28:48 -3 991 0 0 N 0 96.4 490
05:31:47 -3 991 0 0 N 0 96.3 486
05:34:44 -3 991 0 0 N 0 96.3 498
05:37:44 -3 991 0 0 N 0 96.3 507
05:40:45 -3 991 0 0 N 0 96.2 507
05:43:47 -3 991 0 0 N 0 96.2 509
05:46:44 -3 991 0 0 N 0 96.2 501
05:49:48 -3 991 0 0 SO 0 96.2 507
05:52:47 -3 991 0 0 SO 0 96.2 497
05:55:46 -3 991 0 0 SO 0 96.3 495
05:58:45 -3 991 0 0 SO 0 96.4 492
06:01:46 -3 991 0 0 SO 0 96.4 495
06:04:47 -3 991 0 0 N 0 96.5 492
06:07:44 -3 991 0 0 N 0 96.6 496
06:10:46 -3 991 0 0 N 0 96.3 495
06:13:46 -3 991 0 0 N 0 96.4 501
06:16:46 -3 991 0 0 N 0 96.5 508
06:19:47 -3 990 0 0 NO 0 96.6 497
06:22:47 -3 991 0 0 NO 0 96.6 489
06:25:46 -2 991 0 0 NO 0 96.6 493
06:28:47 -2 990 0 0 O 0 96.6 502
06:31:47 -2 990 0 0 O 0 96.6 497
06:34:45 -2 991 3 0 O 0 96.6 489
06:37:47 -2 990 4 0 O 0 96.6 484
06:40:48 -2 991 7 0 SO 0 96.6 484
06:43:47 -2 991 10 0 SO 0 96.6 489
06:46:48 -2 991 14 0 SO 0 96.6 495
06:49:50 -2 990 20 0 SO 0 96.6 492
06:52:48 -2 991 26 0 NO 0 96.6 489
06:55:45 -2 990 35 1 N 0 96.6 489
06:58:47 -2 991 45 0 N 0 96.6 496
07:01:48 -2 991 57 0 NO 0 96.6 501
07:04:47 -1 991 71 0 NO 0 96.6 492
07:07:49 -1 991 85 0 NO 0 96.6 490
07:10:47 -1 990 98 0 S 0 96.6 489
07:13:48 -1 991 109 0 SO 0 96.6 490
07:16:48 -1 990 118 0 SO 0 96.6 486
07:19:47 -1 990 123 0 SO 0 96.6 489
07:22:49 -1 991 129 0 SO 0 96.6 496
07:25:48 -1 991 135 0 SO 0 96.6 515
07:28:48 -1 991 142 0 SO 0 96.6 527
07:31:49 -1 990 148 0 SO 0 96.6 530
07:34:46 -1 991 153 0 NO 0 96.6 532
07:37:47 -1 991 157 0 NO 0 96.6 530
07:40:46 -1 990 161 0 NO 0 96.6 536
07:43:48 -1 991 165 0 NO 0 96.6 542
07:46:47 -1 991 167 0 NO 0 96.6 547
07:49:48 -1 991 171 0 NO 0 96.6 551
07:52:48 -1 991 174 0 NO 0 96.6 550
07:55:48 -1 990 177 0 NO 0 96.6 539
07:58:47 -1 991 179 0 NO 0 96.6 539
08:01:51 -1 991 181 0 NO 0 96.6 533
08:04:49 -1 991 182 0 NO 0 96.6 530
08:07:47 -1 991 184 0 O 0 96.6 530
08:10:47 -1 990 185 0 O 0 96.6 530
08:13:47 -1 991 186 0 NO 0 96.6 533
08:16:51 -1 991 187 1 NO 0 96.6 533
08:19:49 0 991 188 1 O 0 96.6 534
08:22:47 0 991 190 0 O 0 96.6 539
08:25:49 0 991 191 0 O 0 96.6 542
08:28:45 0 991 192 0 O 0 96.6 544
08:31:47 0 991 194 1 O 0 96.6 541
08:34:48 0 991 195 0 S 0 96.6 543
08:37:48 0 991 196 0 SO 0 96.6 545
08:40:47 1 991 199 0 SO 0 96.6 553
08:43:47 1 991 202 0 SO 0 96.6 548
08:46:46 1 991 204 0 SO 0 96.4 554
08:49:48 2 991 203 0 SO 0 96.2 553
08:52:47 2 990 201 0 SO 0 96 550
08:55:48 2 990 201 0 SO 0 95.6 554
08:58:50 3 990 202 0 SO 0 95.2 563
09:01:51 3 990 206 0 NW 0 95 578
09:04:46 3 991 209 0 O 0 94.9 578
09:07:49 3 990 210 1 NO 0 94.2 574
09:10:47 4 990 210 0 O 0 93.6 575
09:13:48 4 990 208 0 S 0 93.5 571
09:16:49 4 991 204 2 SO 0 92.6 568
09:19:49 4 990 204 0 SO 0 91.5 568
09:22:47 4 990 204 1 NO 0 87.1 571
09:25:46 4 990 204 0 S 0 87.2 572
09:28:48 4 990 205 1 SW 0 88.1 571
09:31:49 4 990 205 3 S 0 88.7 577
09:34:47 4 990 207 1 S 0 88.1 575
09:37:49 5 990 210 1 S 0 87.5 574
09:40:48 5 990 211 0 SO 0 87.5 574
09:43:47 5 990 212 3 N 0 82.4 580
09:46:48 5 990 212 1 SW 0 81.8 580
09:49:46 5 990 212 2 N 0 81.5 580
09:52:44 6 990 213 1 O 0 81.4 576
09:55:47 6 990 215 0 O 0 81.7 583
09:58:46 6 991 216 5 NO 0 81.2 582
10:01:46 6 991 216 1 S 0 80.8 574
10:04:47 7 990 216 1 O 0 79.2 568
10:07:50 7 990 216 2 SO 0 78.6 568
10:10:48 7 991 216 3 S 0 77.7 577
10:13:45 7 990 217 5 S 0 76.2 579
10:16:49 7 990 218 0 SO 0 74.2 574
10:19:44 7 990 218 1 S 0 73.7 577
10:22:45 8 990 219 2 O 0 73.1 576
10:25:46 8 991 219 2 N 0 71.2 582
10:28:48 8 990 220 1 N 0 70.3 580
10:31:48 8 990 221 0 SW 0 68.4 571
10:34:48 8 990 221 0 SO 0 65.2 567
10:37:47 7 990 221 3 NW 0 64.8 567
10:40:48 7 990 220 0 SO 0 66.5 574
10:43:46 8 990 221 1 S 0 67.2 577
10:46:46 8 989 222 1 N 0 68.6 572
10:49:48 8 990 223 1 N 0 65.1 582
10:52:49 8 990 223 1 O 0 65 578
10:55:49 8 990 223 3 NO 0 65.7 574
10:58:49 8 990 224 7 NO 0 66.1 568
11:01:45 8 990 224 3 N 0 67 571
11:04:46 8 990 225 5 W 0 67.2 580
11:07:51 8 990 225 7 NW 0 66.7 583
11:10:50 8 990 225 0 SW 0 66 580
11:13:48 8 989 224 2 NO 0 64.5 580
11:16:46 8 989 224 5 NW 0 62.9 577
11:19:48 8 990 224 7 N 0 62.5 569
11:22:47 8 990 224 3 N 0 62.4 556
11:25:47 8 990 225 1 NW 0 63.6 563
11:28:48 8 990 225 4 SW 0 63.3 562
11:31:47 8 990 225 6 N 0 62.4 560
11:34:46 8 990 226 2 N 0 62.2 565
11:37:48 8 990 226 1 SW 0 62.3 568
11:40:46 9 990 226 6 N 0 62.2 571
11:43:49 8 990 227 12 NW 0 61 562
11:46:50 8 989 227 5 NW 0 60.2 568
11:49:46 8 989 228 2 NO 0 60.9 571
11:52:47 9 989 229 5 NO 0 61.1 580
11:55:48 9 990 229 0 SO 0 60.6 571
11:58:49 9 990 229 4 O 0 59.2 563
12:01:47 9 989 229 5 W 0 59.4 568
12:04:49 10 989 229 4 NW 0 57.3 571
12:07:47 9 990 228 2 W 0 57.2 576
12:10:47 9 989 228 4 0 58.1 580
12:13:49 9 989 228 7 NO 0 58.5 571
12:16:49 9 990 228 3 NO 0 58.9 569
12:19:48 9 989 228 1 SW 0 58.6 559
12:22:50 9 989 228 2 NW 0 58.7 570
12:25:46 9 989 229 2 O 0 57.8 577
12:28:47 9 990 229 4 NO 0 57.2 580
12:31:47 9 989 229 2 SO 0 57.1 582
12:34:47 9 989 229 7 N 0 58.1 588
12:37:47 9 989 229 3 W 0 57 585
12:40:49 10 989 229 4 NW 0 56.9 582
12:43:48 10 989 228 1 SO 0 56.4 570
12:46:45 9 989 228 2 N 0 55.7 556
12:49:49 9 989 229 2 O 0 58.4 563
12:52:48 10 989 229 10 NO 0 57.8 577
12:55:47 10 989 229 3 NO 0 55.8 573
12:58:48 10 989 229 7 N 0 55.5 568
13:01:47 10 988 228 4 S 0 55.2 568
13:04:47 10 988 227 4 O 0 56.4 571
13:07:51 10 989 227 5 SW 0 54.4 567
13:10:48 10 988 228 8 NW 0 55.6 571
13:13:48 10 989 229 2 N 0 54.1 571
13:16:47 10 988 229 2 NO 0 55 571
13:19:46 10 988 229 4 O 0 54.4 571
13:22:48 10 988 230 8 SW 0 54.7 606
13:25:49 10 989 231 2 W 0 54.8 603
13:28:46 10 988 231 3 NO 0 55.1 606
13:31:47 10 989 231 2 W 0 56.1 604
13:34:47 10 988 229 2 N 0 56.1 607
13:37:48 10 988 229 2 N 0 54.2 600
13:40:48 10 987 231 2 O 0 54.8 612
13:43:48 10 988 232 0 NO 0 54.1 612
13:46:48 10 988 232 3 NO 0 54.8 618
13:49:48 10 988 232 1 NO 0 55.1 614
13:52:49 11 988 231 6 SO 0 55.2 608
13:55:50 11 988 231 0 NO 0 54.7 607
13:58:46 11 988 231 4 O 0 53 601
14:01:46 10 988 231 6 N 0 52 604
14:04:49 10 989 231 8 N 0 53 603
14:07:47 10 988 229 2 N 0 53.3 606
14:10:48 10 988 226 0 O 0 54.1 612
14:13:47 10 988 226 3 N 0 54.4 615
14:16:46 10 988 227 5 S 0 54.2 603
14:19:49 10 988 228 4 NW 0 54.3 602
14:22:46 10 988 230 5 N 0 54.4 603
14:25:50 10 988 232 2 NO 0 54.2 607
14:28:49 10 988 232 1 W 0 54.6 566
14:31:48 10 988 230 6 NO 0 54.6 565
14:34:48 10 988 230 3 W 0 53 579
14:37:47 10 987 230 3 SO 0 53.2 595
14:40:47 10 988 232 6 SW 0 54 585
14:43:49 10 988 233 3 NO 0 53.5 586
14:46:48 10 988 235 7 NW 0 53.5 583
14:49:46 10 987 236 2 O 0 52.9 582
14:52:49 10 988 234 5 NW 0 52.6 580
14:55:46 10 988 234 12 N 0 52.4 582
14:58:48 10 988 232 8 N 0 52.3 592
15:01:47 10 988 232 2 N 0 52.8 596
15:04:47 10 987 233 3 NO 0 54.7 594
15:07:49 10 988 235 1 W 0 53.9 596
15:10:46 10 987 235 5 N 0 53.7 593
15:13:50 10 988 232 6 NO 0 54 598
15:16:47 10 987 231 9 N 0 55.8 600
15:19:47 10 987 232 16 0 56.6 603
15:22:47 9 987 234 5 O 0 58 597
15:25:49 9 987 236 4 NO 0 60.6 598
15:28:50 9 987 238 7 NW 0 60.9 598
15:31:47 9 987 238 3 O 0 61.1 597
15:34:46 9 987 242 6 0 61.5 598
15:37:49 9 987 243 16 NW 0 61.8 597
15:40:48 9 987 244 2 SW 0 61.8 592
15:43:47 10 988 244 8 0 61.7 589
15:46:49 10 987 244 4 NW 0 61 596
15:49:49 9 987 244 8 NW 0 60.9 598
15:52:45 10 987 245 3 N 0 61.7 592
15:55:45 9 987 245 3 N 0 61.4 586
15:58:49 10 988 242 15 NW 0 61 583
16:01:51 10 987 240 4 SO 0 60.6 583
16:04:47 9 987 241 2 O 0 60.8 590
16:07:48 9 987 225 2 S 0 61.1 564
16:10:48 9 987 238 12 NW 0 61 412
16:13:48 9 987 238 12 NO 0 61.7 421
16:16:47 9 988 234 6 NW 0 62 457
16:19:47 9 987 234 13 N 0 62.3 475
16:22:49 9 987 235 5 NO 0 62.1 480
16:25:47 8 987 230 1 O 0 62.5 485
16:28:50 8 987 228 5 SW 0 63.7 489
16:31:47 8 987 223 3 NO 0 63.7 495
16:34:47 8 987 220 6 N 0 63.8 497
16:37:47 8 987 218 6 N 0 63.8 492
16:40:50 8 987 217 12 SO 0 64.3 494
16:43:47 8 987 216 8 NO 0 64.1 497
16:46:49 8 987 215 2 NO 0 64.9 495
16:49:45 8 987 213 7 O 0 64.9 503
16:52:46 8 987 214 6 O 0 64.8 500
16:55:48 8 987 214 11 NW 0 65.4 492
16:58:48 8 987 212 4 NW 0 65.5 495
17:01:47 8 987 210 7 N 0 65.8 500
17:04:47 8 987 210 4 S 0 66.1 500
17:07:47 8 987 208 9 S 0 66.4 495
17:10:48 8 987 208 4 NO 0 66.7 498
17:13:45 8 987 208 4 O 0 67.1 497
17:16:45 7 987 208 2 N 0 67.1 501
17:19:47 7 987 207 3 NO 0 67.5 495
17:22:47 7 987 207 6 N 0 67.9 495
17:25:49 7 987 206 14 NW 0 67.8 495
17:28:50 7 987 206 2 NW 0 67.5 495
17:31:45 7 987 204 5 O 0 68.4 498
17:34:47 7 987 200 17 NW 0 68.7 495
17:37:48 7 988 198 8 NO 0 68 495
17:40:46 7 987 197 6 N 0 68.4 499
17:43:49 7 987 194 11 W 0 69 492
17:46:46 7 987 189 3 N 0 69.2 489
17:49:47 7 987 185 3 NO 0 69.9 492
17:52:47 7 987 183 8 0 70.3 498
17:55:48 7 988 182 5 NW 0 70.6 500
17:58:50 7 987 178 1 NO 0 71.1 502
18:01:45 7 987 174 2 O 0 71.4 501
18:04:47 7 987 170 5 NW 0 71.8 501
18:07:48 6 988 166 9 O 0 71.7 504
18:10:47 6 987 162 2 SO 0 71.8 497
18:13:47 6 987 157 11 N 0 72.2 498
18:16:46 6 987 156 6 N 0 72.7 503
18:19:48 6 987 155 6 NO 0 73.1 513
18:22:47 6 988 154 4 NO 0 73.5 515
18:25:46 6 987 152 5 NO 0 73.8 521
18:28:46 6 987 152 4 SO 0 73.8 515
18:31:48 6 987 153 2 NO 0 73.8 509
18:34:50 6 987 151 10 NW 0 73.8 503
18:37:47 6 987 148 1 SO 0 73.8 513
18:40:47 6 988 148 3 0 74.2 524
18:43:46 6 988 149 5 NO 0 74.5 521
18:46:48 6 987 150 3 NO 0 73.9 525
18:49:50 6 988 148 5 SO 0 73.9 530
18:52:46 6 987 146 4 NO 0 74 533
18:55:47 6 987 145 5 N 0 74.3 524
18:58:45 6 987 144 5 N 0 74.3 518
19:01:48 6 987 141 7 NO 0 74.3 512
19:04:47 5 987 138 0 NO 0 74.4 515
19:07:47 5 987 137 2 NO 0 74.7 509
19:10:46 5 987 135 1 S 0 74.7 507
19:13:49 5 987 130 3 NW 0 74.9 510
19:16:46 5 988 118 4 NO 0 75.1 513
19:19:47 5 988 108 2 O 0 75.4 512
19:22:47 5 987 101 2 SO 0 75.8 515
19:25:48 5 988 97 5 N 0 75.9 521
19:28:48 5 988 90 2 SW 0 75.8 519
19:31:47 5 988 80 6 NO 0 75.7 512
19:34:46 5 987 69 14 N 0 75.7 517
19:37:47 5 987 61 2 O 0 75.9 516
19:40:47 5 987 52 3 NW 0 76 519
19:43:46 5 987 42 1 NO 0 76.3 521
19:46:47 5 987 35 2 O 0 76.4 518
19:49:48 5 988 27 5 N 0 76.5 525
19:52:47 5 987 19 5 SO 0 76.6 524
19:55:46 5 988 13 1 W 0 76.7 527
19:58:45 5 987 9 3 S 0 76.9 527
20:01:44 5 987 6 2 N 0 77.1 518
20:04:46 5 988 4 1 W 0 77.3 518
20:07:46 5 987 0 2 NO 0 77.4 518
20:10:47 5 987 0 2 SW 0 77.8 521
20:13:48 5 987 0 4 SO 0 78.1 525
20:16:46 5 988 0 0 SO 0 78.4 524
20:19:46 5 987 0 7 O 0 78.7 513
20:22:44 5 988 0 3 N 0 79 515
20:25:45 5 987 0 2 S 0 79.3 515
20:28:46 5 987 0 5 S 0 79.4 512
20:31:46 5 987 0 2 NW 0 79.5 509
20:34:46 5 987 0 0 NO 0 79.6 510
20:37:44 5 988 0 1 0 79.7 509
20:40:47 5 987 0 0 O 0 79.9 508
20:43:46 5 988 0 2 S 0 80.1 507
20:46:45 5 987 0 1 N 0 80.5 515
20:49:47 5 988 0 0 O 0 80.8 524
20:52:46 5 988 0 1 NO 0 80.9 522
20:55:47 5 988 0 3 NO 0 81.2 524
20:58:45 5 987 0 2 O 0 81.4 521
21:01:48 5 988 0 3 NW 0 81.5 527
21:04:44 5 987 0 6 0 81.5 536
21:07:44 5 987 0 1 O 0 81.6 536
21:10:48 5 987 0 3 N 0 81.7 542
21:13:44 5 987 0 0 NO 0 81.7 541
21:16:48 5 988 0 1 SW 0 81.8 539
21:19:45 5 987 0 3 N 0 81.8 538
21:22:47 5 987 0 1 NO 0 82 533
21:25:45 5 987 0 4 N 0 81.9 536
21:28:48 5 988 0 0 SO 0 81.8 536
21:31:47 5 987 0 2 NO 0 81.8 538
21:34:45 5 987 0 1 N 0 81.7 536
21:37:46 5 987 0 2 NO 0 81.7 530
21:40:47 5 987 0 4 N 0 81.7 530
21:43:45 5 987 0 2 N 0 81.6 530
21:46:45 5 988 0 3 O 0 81.6 529
21:49:45 4 988 0 2 N 0 81.5 530
21:52:48 4 987 0 2 N 0 81.5 527
21:55:44 4 987 0 1 NO 0 81.6 533
21:58:44 4 988 0 1 O 0 81.3 533
22:01:45 4 988 0 0 0 81.2 541
22:04:50 4 987 0 2 SO 0 81 536
22:07:46 4 987 0 2 SW 0 80.9 544
22:10:48 4 988 0 0 NO 0 80.9 542
22:13:47 4 987 0 1 SW 0 80.8 548
22:16:45 4 987 0 3 N 0 80.8 545
22:19:47 4 988 0 2 SO 0 80.7 541
22:22:45 4 987 0 1 O 0 80.5 538
22:25:46 4 988 0 0 NO 0 80 536
22:28:46 4 988 0 1 SO 0 79.9 538
22:31:49 4 987 0 0 O 0 79.9 536
22:34:45 4 987 0 3 NO 0 79.8 539
22:37:46 4 987 0 0 O 0 79.7 538
22:40:45 4 987 0 4 NO 0 79.3 535
22:43:46 4 988 0 2 O 0 79.3 535
22:46:47 4 987 0 1 NO 0 79.4 539
22:49:48 4 987 0 2 NO 0 79.4 541
22:52:46 4 987 0 2 SO 0 79 532
22:55:46 4 987 0 0 SO 0 79 526
22:58:46 4 988 0 1 NO 0 79 524
23:01:45 4 987 0 2 SO 0 78.7 518
23:04:46 4 987 0 2 N 0 78.6 521
23:07:46 4 988 0 2 NO 0 78.5 521
23:10:49 4 987 0 2 SO 0 78.4 521
23:13:46 4 987 0 1 NO 0 78.3 509
23:16:44 4 987 0 1 N 0 78.2 509
23:19:46 4 988 0 3 O 0 78.1 516
23:22:46 4 987 0 3 NO 0 77.9 515
23:25:47 4 987 0 2 O 0 77.9 508
23:28:45 4 988 0 3 O 0 77.8 510
23:31:45 4 987 0 1 NO 0 77.7 510
23:34:44 4 987 0 3 O 0 77.9 515
23:37:48 4 987 0 2 N 0 77.9 504
23:40:47 4 987 0 2 SO 0 77.9 503
23:43:48 4 987 0 1 NO 0 78 506
23:46:44 4 987 0 2 O 0 78 504
23:49:45 4 987 0 3 S 0 77.9 500
23:52:45 4 987 0 0 O 0 77.9 492
23:55:46 4 987 0 4 SO 0 78 492
23:58:47 4 987 0 1 O 0 77.7 492

Letzte Änderung : 04-Jan-2022
Copyright Jens Köhler, Wolfsburg, Obere Dorfstraße 10d